Regional Weather Roundup
Issued by NWS Albany, NY

Home | Current Version | Previous Version | Graphics & Text | Print | Product List | Glossary Off
Versions: 1 2 3 4 5 6 7 8 9 10 11 12 13 14 15 16 17 18 19 20 21 22 23 24 25 26 27 28 29 30 31 32 33 34 35 36 37 38 39 40 41 42 43 44 45 46 47 48 49 50

000
ASUS41 KALY 272110
RWRALY

NEW YORK STATE HOURLY WEATHER ROUNDUP
NATIONAL WEATHER SERVICE ALBANY NY
500 PM EDT MON JUL 27 2015

NOTE: "FAIR" INDICATES FEW OR NO CLOUDS BELOW 12,000 FEET WITH NO
SIGNIFICANT WEATHER AND/OR NO OBSTRUCTIONS TO VISIBILITY.

NYZ032-033-038>043-046>054-057>066-NYZ062>081-272200-
EAST


CITY           SKY/WX    TMP DP  RH WIND       PRES   REMARKS
ALBANY         MOSUNNY   88  66  48 SW8       29.94F HX  90
GLENS FALLS    SUNNY     85  65  51 SE7       29.93F
POUGHKEEPSIE   MOSUNNY   86  67  52 VRB6      29.96F
NEWBURGH       PTSUNNY   77  70  78 S8        30.00S
MONTGOMERY     MOSUNNY   82  70  66 E7        29.97F
WHITE PLAINS   MOSUNNY   80  66  62 S8        30.00S
ISLIP          MOSUNNY   81  69  67 S14       29.99S
NEW YORK CITY  MOSUNNY   81  66  60 S15       29.98S
CENTRAL PARK   SUNNY     82  66  58 MISG      30.01F
$$

NYZ005>009-017-018-044>046-055-056-272200-
CENTRAL


CITY           SKY/WX    TMP DP  RH WIND       PRES   REMARKS
FULTON         SUNNY     85  58  39 W7        29.98F
SYRACUSE       MOSUNNY   86  65  49 W8        29.97F
ROME           SUNNY     85  66  53 NW10      29.98F
ELMIRA         SUNNY     86  60  41 N7        29.98F
BINGHAMTON     MOSUNNY   81  60  48 CALM      30.02F
MONTICELLO     MOSUNNY   81  66  61 SW5       30.04S
$$

NYZ026>034-041>043-272200-
NORTH


CITY           SKY/WX    TMP DP  RH WIND       PRES   REMARKS
WATERTOWN      SUNNY     82  64  54 W12       29.97F
FORT DRUM      NOT AVBL
MASSENA        MOSUNNY   85  61  44 SW8       29.93F
SARANAC LAKE   MOSUNNY   80  64  58 SW5       29.99F
PLATTSBURGH    CLOUDY    78  63  59 VRB5      29.94F
$$

NYZ001>004-010>016-019>021-272200-
WEST


CITY           SKY/WX    TMP DP  RH WIND       PRES   REMARKS
NIAGARA FALLS  MOSUNNY   87  61  41 MISG      29.99F
BUFFALO        MOSUNNY   86  60  41 NE5       29.99F
DUNKIRK        SUNNY     83  61  47 N8        30.01F
JAMESTOWN      PTSUNNY   82  55  39 CALM      30.06S
WELLSVILLE     PTSUNNY   83  53  35 VRB6      30.08S
ROCHESTER      PTSUNNY   88  61  40 NW3       29.99F
PENN YAN       SUNNY     84  62  47 VRB3      30.01F
$$

             KEY
       WCI = WIND CHILL INDEX
       VSB = VISIBILITY
       HX  = HEAT INDEX
$$



USA.gov is the U.S. government's official web portal to all federal, state and local government web resources and services.